Regional Weather Roundup
Issued by NWS Jackson, KY

Home | Current Version | Previous Version | Text Only | Print | Product List | Glossary Off
Versions: 1 2 3 4 5 6 7 8 9 10 11 12 13 14 15 16 17 18 19 20 21 22 23 24 25 26 27 28 29 30 31 32 33 34 35 36 37 38 39 40 41 42 43 44 45 46 47 48 49 50

000
ASUS43 KJKL 311911
RWRJKL

EAST KENTUCKY HOURLY WEATHER ROUNDUP
NATIONAL WEATHER SERVICE JACKSON KY
300 PM EDT THU JUL 31 2014

NOTE: "FAIR" INDICATES FEW OR NO CLOUDS BELOW 12,000 FEET WITH
NO SIGNIFICANT WEATHER AND/OR OBSTRUCTIONS TO VISIBILITY.

* THESE REPORTS ARE NOT UNDER NWS QUALITY CONTROL AND MAY NOT
  REPORT WEATHER SUCH AS PRECIPITATION AND FOG.

KYZ079-080-083-085-087-088-110-112-115-119-120-312000
...EASTERN KENTUCKY...

CITY           SKY/WX    TMP DP  RH WIND       PRES   REMARKS
JACKSON        MOSUNNY   79  59  50 CALM      30.14F
LONDON         MOSUNNY   80  56  43 CALM      30.13F
SOMERSET*      MOSUNNY   81  54  39 CALM      30.13S
MONTICELLO*    MOSUNNY   84  61  45 N6        30.13F
WILLIAMSBURG*  SUNNY     79  57  47 CALM      30.13F
MIDDLESBORO*   PTSUNNY   80  62  53 NE6       30.12F
HARLAN APT*    MOCLDY    79  57  47 MISG      30.14S
HAZARD APT*    MOCLDY    81  61  50 W5        30.13
BLACK MTN*       N/A     70  59  68 CALM        N/A
PIKEVILLE APT* SUNNY     79  57  47 S5        30.14F
BIG SANDY*     PTCLDY    79  59  50 CALM      30.14S
MOREHEAD APT*    N/A     79  59  50 SW7       30.14F
$$

KYZ035-036-041-042-044-050-067-078-099-312000
...CENTRAL KENTUCKY...

CITY           SKY/WX    TMP DP  RH WIND       PRES   REMARKS
MT STERLING*   MOSUNNY   79  59  50 CALM      30.14S
FLEMING/MASON* SUNNY     81  59  47 SW8       30.12F
DANVILLE*      MOSUNNY   81  55  41 S3        30.13S
RICHMOND*      PTSUNNY   81  55  41 S3        30.12S
LEXINGTON      MOSUNNY   80  55  42 SE3       30.12F
FRANKFORT      MOSUNNY   80  54  40 VRB3      30.10F
$$

KYZ091>093-OHZ055-061-077-WVZ005-015-034-035-042-312000
...SOUTHERN OHIO/WEST VIRGINIA...

CITY           SKY/WX    TMP DP  RH WIND       PRES   REMARKS
COVINGTON      MOSUNNY   80  58  46 W6        30.10S
COLUMBUS       MOSUNNY   82  56  40 W12       30.08S
DAYTON         MOSUNNY   81  58  45 W9        30.10F
WILMINGTON     PTSUNNY   79  58  48 SW7       30.10S
HUNTINGTON     MOSUNNY   81  60  48 CALM      30.11S
CHARLESTON     MOSUNNY   80  57  45 SW8       30.12S
PINEVILLE*     PTSUNNY   82  61  48 MISG      30.20F
BECKLEY        MOSUNNY   77  50  38 SW7       30.19S
BLUEFIELD      PTSUNNY   78  55  44 VRB3      30.20F
$$

VAZ002-007-008-TNZ017-027-036-066-071-312000
...SOUTHWEST VIRGINIA/EAST TENNESSEE...

CITY           SKY/WX    TMP DP  RH WIND       PRES   REMARKS
WISE*          CLOUDY    77  55  47 SE3       30.19F
JONESVILLE*    MOCLDY    79  59  50 CALM      30.15F
ABINGDON*      PTSUNNY   80  60  51 SW3       30.16F
BRISTOL        PTSUNNY   79  59  50 VRB3      30.14F
KNOXVILLE      PTSUNNY   78  62  57 S5        30.10F
OAK RIDGE      MOSUNNY   80  61  52 CALM      30.12F
CROSSVILLE     PTSUNNY   78  59  51 CALM      30.14F
NASHVILLE      PTSUNNY   85  55  35 CALM      30.09F
$$

...KEY TO REMARKS...
VSB - VISIBILITY IN MILES
WCI - WIND CHILL INDEX
HX  - HEAT INDEX

$$


USA.gov is the U.S. government's official web portal to all federal, state and local government web resources and services.